Location: Obersdorf
(47.4079°N, 10.2781°E)
Time: 18:25:39
(UTC+02:00)

Nauka - Pass Details

Date: 29 September 2021
Orbit: 417 x 423 km, 51.6° (Epoch: 24 October)

Event Time Altitude Azimuth Distance (km) Brightness Sun altitude
Rises 21:49:49 0° 293° (WNW) 2,368 ? -28.1°
Reaches altitude 10° 21:51:58 10° 286° (WNW) 1,502 ? -28.4°
Enters shadow 21:52:56 17° 280° (W) 1,132 ? -28.6°
